Location: Gradaro
(45.0833°N, 10.8833°E)
Time: 13:21:20
(UTC+00:00)

Cosmos 1356 - Pass Details

Date: 29 November 2020
Orbit: 441 x 444 km, 81.1° (Epoch: 24 January)

Event Time Altitude Azimuth Distance (km) Brightness Sun altitude
Rises 05:54:16 0° 197° (SSW) 2,418 7.2 -6.9°
Reaches altitude 10° 05:56:19 10° 201° (SSW) 1,553 6.2 -6.5°
Maximum altitude 05:59:41 61° 282° (WNW) 508 3.4 -6.0°
Drops below altitude 10° 06:03:04 10° 4° (N) 1,569 5.9 -5.5°
Sets 06:05:10 0° 8° (N) 2,445 6.9 -5.1°
